User: anonymous   Login
Location: Bois de la Silve
(44.4667°N, 6.7833°E)
Time: 07:31:17
(UTC+00:00)
Language:

Gbstr 26 Del rocket - Orbit

View from above orbital plane
View from above orbital plane
View from above satellite
View from above satellite

Ground track
Ground track

The orbit data is extracted from the following two-line orbital elements,

1 25876U 99041E   20271.69488187  .00000057  00000-0  49053-4 0  9991
2 25876  51.7669 266.7231 0530758 282.3011  71.9003 14.04461145 83018
Epoch (UTC): 27 September 2020 16:40:37
Eccentricity: 0.0530758
inclination: 51.7669°
perigee height: 493 km
apogee height: 1263 km
right ascension of ascending node: 266.7231°
argument of perigee: 282.3011°
revolutions per day: 14.04461145
mean anomaly at epoch: 71.9003°
orbit number at epoch: 8301

The dashed part of the orbit path shows where the satellite is in the earth's shadow,  

DLR